This demonstration page uses our WeatherBlox Daily Observations layout. Learn more.

Left ArrowRight Arrow

41.12389, -100.76542

Hourly Observations for September 30, 2022

Temp ( °F °C ) Dew Point ( °F °C ) Humidity (%) Winds ( mph kmh ) Pressure ( in mb ) Visibility ( mi km ) Precip ( " mm )
12:53 am 00:53 Clear 65 18.3 45 7.2 48 48 SE 10 17 29.96 1015 10 16 0.00 0.00
1:53 am 01:53 Clear 58 14.4 45 7.2 62 62 ESE 10 17 29.96 1014 10 16 0.00 0.00
2:53 am 02:53 Clear 55 12.8 45 7.2 69 69 E 6 9 29.96 1014 10 16 0.00 0.00
3:53 am 03:53 Clear 54 12.2 45 7.2 71 71 ESE 8 13 29.93 1014 10 16 0.00 0.00
4:53 am 04:53 Clear 54 12.2 45 7.2 71 71 E 7 11 29.91 1013 10 16 0.00 0.00
5:53 am 05:53 Clear 50 10 43 6.1 77 77 ESE 7 11 29.93 1013 10 16 0.00 0.00
6:53 am 06:53 Clear 50 10 43 6.1 77 77 E 7 11 29.93 1014 10 16 0.00 0.00
7:53 am 07:53 Sunny 48 8.9 43 6.1 83 83 ESE 6 9 29.95 1014 10 16 0.00 0.00
8:53 am 08:53 Sunny 53 11.7 45 7.2 74 74 E 7 11 29.96 1014 10 16 0.00 0.00
9:53 am 09:53 Sunny 59 15 46 7.8 62 62 E 6 9 29.95 1014 10 16 0.00 0.00
10:53 am 10:53 Sunny 66 18.9 47 8.3 50 50 NNW 3 6 29.95 1014 N/A 0.00 0.00
11:53 am 11:53 Sunny 68 20 48 8.9 49 49 Calm 29.93 1013 10 16 0.00 0.00
12:53 pm 12:53 Sunny 74 23.3 49 9.4 41 41 ESE 8 13 29.90 1012 10 16 0.00 0.00
1:53 pm 13:53 Sunny 77 25 49 9.4 37 37 ESE 14 22 29.87 1011 10 16 0.01 0.13
2:53 pm 14:53 Sunny 82 27.8 49 9.4 32 32 SE 15 24 29.84 1011 10 16 0.00 0.00
3:53 pm 15:53 Sunny 82 27.8 47 8.3 29 29 SE 9 15 29.84 1011 10 16 0.00 0.00
4:53 pm 16:53 Sunny 84 28.9 46 7.8 27 27 SSE 12 19 29.83 1010 10 16 0.00 0.00
5:53 pm 17:53 Sunny 84 28.9 48 8.9 29 29 SE 12 19 29.82 1010 10 16 0.00 0.00
6:53 pm 18:53 Sunny 78 25.6 49 9.4 36 36 E 12 19 29.83 1010 10 16 0.00 0.00
7:53 pm 19:53 Clear 73 22.8 49 9.4 42 42 E 10 17 29.85 1011 10 16 0.00 0.00
8:53 pm 20:53 Clear 65 18.3 50 10 58 58 ESE 9 15 29.85 1011 10 16 0.00 0.00
9:53 pm 21:53 Clear 66 18.9 50 10 56 56 E 13 20 29.86 1011 10 16 0.00 0.00
10:53 pm 22:53 Clear 66 18.9 49 9.4 54 54 ESE 10 17 29.85 1011 10 16 0.00 0.00
11:53 pm 23:53 Clear 69 20.6 46 7.8 44 44 ESE 10 17 29.86 1011 10 16 0.00 0.00

Powered by AerisWeather